Flag for U.S.A. Weather past 2 weeks in Angels Camp, California, U.S.A.

Now
57 °F

Sunny.


Feels Like: 53 °F
Forecast: 39 / 67 °F
Wind: 16 mph from Northwest

Location: Modesto City-County-Sham Field


UV Index: 5 (Moderate)

Visibility: 10 mi


Pressure: 30.09 "Hg

Humidity: 41%

Dew point: 33 °F

Location of Angels CampLocation

Historic Weather in Angels Camp

°F

Angels Camp temperature yesterday

Maximum temperature yesterday: 69 °F (at 3:53 PM)
Minimum temperature yesterday: 52 °F (at 6:53 AM)
Average temperature yesterday: 59 °F

Past Weeks' High & Low Weather Summary

 TemperatureHumidityPressure
High86 °F (Apr 8, 4:53 PM)97% (Apr 14, 5:53 AM)30.12 "Hg (Apr 14, 5:53 AM)
Low47 °F (Apr 23, 5:53 AM)15% (Apr 21, 7:53 PM)29.74 "Hg (Apr 17, 4:53 PM)
Average67 °F50%29.94 "Hg
* Reported Apr 8 7:53 AM — Apr 23 7:53 AM, Angels Camp, Weather by CustomWeather, © 2014

Note: Actual official high and low records may vary slightly from our data, if they occured in-between our weather recording intervals... More about our weather records

Advertising

Historic Weather Conditions — Data for Previous 24 hours

 ConditionsComfort  
Time TempWeatherWind HumidityBarometerVisibility
7:53 AM
Apr 23
53 °FSunny.15 mph52%30.09 "Hg10 mi
6:53 AM48 °FClear.9 mph68%30.08 "Hg10 mi
5:53 AM47 °FClear.7 mph69%30.08 "Hg10 mi
4:53 AM48 °FClear.6 mph66%30.06 "Hg10 mi
3:53 AM48 °FClear.N/A68%30.06 "Hg10 mi
2:53 AM50 °FClear.6 mph63%30.06 "Hg10 mi
1:53 AM51 °FClear.9 mph59%30.07 "Hg10 mi
12:53 AM52 °FClear.10 mph57%30.08 "Hg10 mi
11:53 PM
Apr 22
53 °FClear.16 mph55%30.08 "Hg10 mi
10:53 PM54 °FClear.13 mph53%30.06 "Hg10 mi
9:53 PM54 °FClear.12 mph53%30.06 "Hg10 mi
8:53 PM57 °FClear.10 mph46%30.05 "Hg10 mi
7:53 PM59 °FSunny.17 mph42%30.03 "Hg10 mi
6:53 PM63 °FSunny.18 mph35%30.03 "Hg10 mi
5:53 PM65 °FSunny.17 mph31%30.02 "Hg10 mi
4:53 PM68 °FPassing clouds.18 mph26%30.03 "Hg10 mi
3:53 PM69 °FPassing clouds.12 mph23%30.03 "Hg10 mi
2:53 PM68 °FPassing clouds.15 mph25%30.04 "Hg10 mi
1:53 PM65 °FScattered clouds.9 mph29%30.05 "Hg10 mi
12:53 PM64 °FPassing clouds.6 mph32%30.06 "Hg10 mi
11:53 AM63 °FScattered clouds.8 mph37%30.07 "Hg10 mi
10:53 AM60 °FSunny.6 mph44%30.07 "Hg10 mi
9:53 AM60 °FSunny.13 mph46%30.06 "Hg10 mi
Weather by CustomWeather, © 2014

See weather overview